Pagrindinis puslapis
METAR-TAF:

METAR-TAF

Oro uostai :

Lampangas, Tailandas

platuma: 18-17N, ilguma: 099-31E, Aukštis: 241 m

Dabartinis oras

Ataskaita buvo paskelbta 10 valandos ir 43 minutes, ne 12:00 UTC
Ramus vėjas
Temperatūra 23°C
Drėgmė 73%
Slėgis 1015 hPa
Matomumas 10 km arba daugiau
nėra debesų žemiau 1500 m ir nėra kamuolinių lietaus debesų

METAR: VTCL 291200Z 00000KT CAVOK 23/18 Q1015 NOSIG

Laikas: 05:43 (22:43 UTC)

Prognozė

Ataskaita buvo paskelbta 5 valandos ir 43 minutes, ne 17:00 UTC
Prognozė galioja nuo 29 metu 18 UTC su 30 metu 18 UTC
Vėjas 5 kt iš Šiaurės/Šiaurės Rytų
Matomumas 10 km arba daugiau
Mažai debesys ne aukštis 2500 ft

TAF: VTCL 291700Z 2918/3018 02005KT 9999 FEW025

Orai ataskaitas ir orų prognozės (METAR, TAF).

turimą stotys yra geltonos ir raudonos taškus žemėlapyje.

Perkelti pele per norėdami pamatyti stoties vardą.

Tada spustelėkite, norėdami matyti oro stebėjimo ir prognozės.

Norėdami pakeisti žemėlapį: spustelėkite ant žalios mygtukų su juodo kryžiaus žemyn,; žalią mygtuką su brūkšneliu, jei norite nutolinti; arba žalių rodyklių gretimoms žemėlapius.


METAR-TAF: